Year,Month,Day,Hour,Minute,Value (Times are PST for temperature in C)
2009,06,10,00,00,17.00
2009,06,10,00,01,17.00
2009,06,10,00,02,16.90
2009,06,10,00,03,16.90
2009,06,10,00,04,16.80
2009,06,10,00,05,16.80
2009,06,10,00,06,16.80
2009,06,10,00,07,16.70
2009,06,10,00,08,16.70
2009,06,10,00,09,16.70
2009,06,10,00,10,16.60
2009,06,10,00,11,16.60
2009,06,10,00,12,16.50
2009,06,10,00,13,16.50
2009,06,10,00,14,16.40
2009,06,10,00,15,16.40
2009,06,10,00,16,16.40
2009,06,10,00,17,16.40
2009,06,10,00,18,16.30
2009,06,10,00,19,16.30
2009,06,10,00,20,16.30
2009,06,10,00,21,16.20
2009,06,10,00,22,16.20
2009,06,10,00,23,16.20
2009,06,10,00,24,16.10
2009,06,10,00,25,16.10
2009,06,10,00,26,16.10
2009,06,10,00,27,16.10
2009,06,10,00,28,16.00
2009,06,10,00,29,16.00
2009,06,10,00,30,16.00
2009,06,10,00,31,16.00
2009,06,10,00,32,16.00
2009,06,10,00,33,16.00
2009,06,10,00,34,16.00
2009,06,10,00,35,15.90
2009,06,10,00,36,15.90
2009,06,10,00,37,15.80
2009,06,10,00,38,15.80
2009,06,10,00,39,15.70
2009,06,10,00,40,15.70
2009,06,10,00,41,15.60
2009,06,10,00,42,15.50
2009,06,10,00,43,15.50
2009,06,10,00,44,15.40
2009,06,10,00,45,15.30
2009,06,10,00,46,15.20
2009,06,10,00,47,15.20
2009,06,10,00,48,15.10
2009,06,10,00,49,15.00
2009,06,10,00,50,15.00
2009,06,10,00,51,15.00
2009,06,10,00,52,15.00
2009,06,10,00,53,15.00
2009,06,10,00,54,15.00
2009,06,10,00,55,15.00
2009,06,10,00,56,14.90
2009,06,10,00,57,14.90
2009,06,10,00,58,14.80
2009,06,10,00,59,14.80
2009,06,10,01,00,14.80
2009,06,10,01,01,14.70
2009,06,10,01,02,14.70
2009,06,10,01,03,14.70
2009,06,10,01,04,14.70
2009,06,10,01,05,14.60
2009,06,10,01,06,14.60
2009,06,10,01,07,14.60
2009,06,10,01,08,14.60
2009,06,10,01,09,14.50
2009,06,10,01,10,14.50
2009,06,10,01,11,14.50
2009,06,10,01,12,14.50
2009,06,10,01,13,14.40
2009,06,10,01,14,14.40
2009,06,10,01,15,14.40
2009,06,10,01,16,14.40
2009,06,10,01,17,14.40
2009,06,10,01,18,14.40
2009,06,10,01,19,14.40
2009,06,10,01,20,14.40
2009,06,10,01,21,14.40
2009,06,10,01,22,14.30
2009,06,10,01,23,14.30
2009,06,10,01,24,14.30
2009,06,10,01,25,14.30
2009,06,10,01,26,14.30
2009,06,10,01,27,14.30
2009,06,10,01,28,14.20
2009,06,10,01,29,14.20
2009,06,10,01,30,14.20
2009,06,10,01,31,14.20
2009,06,10,01,32,14.20
2009,06,10,01,33,14.20
2009,06,10,01,34,14.10
2009,06,10,01,35,14.10
2009,06,10,01,36,14.10
2009,06,10,01,37,14.10
2009,06,10,01,38,14.10
2009,06,10,01,39,14.10
2009,06,10,01,40,14.10
2009,06,10,01,41,14.10
2009,06,10,01,42,14.10
2009,06,10,01,43,14.10
2009,06,10,01,44,14.10
2009,06,10,01,45,14.10
2009,06,10,01,46,14.10
2009,06,10,01,47,14.10
2009,06,10,01,48,14.10
2009,06,10,01,49,14.10
2009,06,10,01,50,14.00
2009,06,10,01,51,14.00
2009,06,10,01,52,14.00
2009,06,10,01,53,14.00
2009,06,10,01,54,14.00
2009,06,10,01,55,14.00
2009,06,10,01,56,13.90
2009,06,10,01,57,13.90
2009,06,10,01,58,13.90
2009,06,10,01,59,13.90
2009,06,10,02,00,13.90
2009,06,10,02,01,13.90
2009,06,10,02,02,13.90
2009,06,10,02,03,13.90
2009,06,10,02,04,13.90
2009,06,10,02,05,13.90
2009,06,10,02,06,13.90
2009,06,10,02,07,13.90
2009,06,10,02,08,13.90
2009,06,10,02,09,13.90
2009,06,10,02,10,13.80
2009,06,10,02,11,13.80
2009,06,10,02,12,13.80
2009,06,10,02,13,13.80
2009,06,10,02,14,13.80
2009,06,10,02,15,13.80
2009,06,10,02,16,13.80
2009,06,10,02,17,13.80
2009,06,10,02,18,13.80
2009,06,10,02,19,13.80
2009,06,10,02,20,13.80
2009,06,10,02,21,13.80
2009,06,10,02,22,13.80
2009,06,10,02,23,13.90
2009,06,10,02,24,13.90
2009,06,10,02,25,13.90
2009,06,10,02,26,13.90
2009,06,10,02,27,13.90
2009,06,10,02,28,13.90
2009,06,10,02,29,13.90
2009,06,10,02,30,14.00
2009,06,10,02,31,14.00
2009,06,10,02,32,14.00
2009,06,10,02,33,13.90
2009,06,10,02,34,13.90
2009,06,10,02,35,13.90
2009,06,10,02,36,13.90
2009,06,10,02,37,13.90
2009,06,10,02,38,13.90
2009,06,10,02,39,13.90
2009,06,10,02,40,13.90
2009,06,10,02,41,13.90
2009,06,10,02,42,13.90
2009,06,10,02,43,13.90
2009,06,10,02,44,14.00
2009,06,10,02,45,14.00
2009,06,10,02,46,14.10
2009,06,10,02,47,14.10
2009,06,10,02,48,14.10
2009,06,10,02,49,14.20
2009,06,10,02,50,14.20
2009,06,10,02,51,14.20
2009,06,10,02,52,14.30
2009,06,10,02,53,14.30
2009,06,10,02,54,14.30
2009,06,10,02,55,14.30
2009,06,10,02,56,14.30
2009,06,10,02,57,14.30
2009,06,10,02,58,14.30
2009,06,10,02,59,14.30
2009,06,10,03,00,14.30
2009,06,10,03,01,14.30
2009,06,10,03,02,14.30
2009,06,10,03,03,14.30
2009,06,10,03,04,14.30
2009,06,10,03,05,14.30
2009,06,10,03,06,14.30
2009,06,10,03,07,14.30
2009,06,10,03,08,14.30
2009,06,10,03,09,14.30
2009,06,10,03,10,14.30
2009,06,10,03,11,14.20
2009,06,10,03,12,14.20
2009,06,10,03,13,14.20
2009,06,10,03,14,14.20
2009,06,10,03,15,14.20
2009,06,10,03,16,14.20
2009,06,10,03,17,14.20
2009,06,10,03,18,14.20
2009,06,10,03,19,14.20
2009,06,10,03,20,14.20
2009,06,10,03,21,14.20
2009,06,10,03,22,14.20
2009,06,10,03,23,14.20
2009,06,10,03,24,14.20
2009,06,10,03,25,14.20
2009,06,10,03,26,14.20
2009,06,10,03,27,14.20
2009,06,10,03,28,14.10
2009,06,10,03,29,14.10
2009,06,10,03,30,14.10
2009,06,10,03,31,14.10
2009,06,10,03,32,14.10
2009,06,10,03,33,14.00
2009,06,10,03,34,14.00
2009,06,10,03,35,13.90
2009,06,10,03,36,13.90
2009,06,10,03,37,13.80
2009,06,10,03,38,13.80
2009,06,10,03,39,13.70
2009,06,10,03,40,13.60
2009,06,10,03,41,13.60
2009,06,10,03,42,13.50
2009,06,10,03,43,13.50
2009,06,10,03,44,13.40
2009,06,10,03,45,13.30
2009,06,10,03,46,13.30
2009,06,10,03,47,13.30
2009,06,10,03,48,13.20
2009,06,10,03,49,13.20
2009,06,10,03,50,13.20
2009,06,10,03,51,13.20
2009,06,10,03,52,13.30
2009,06,10,03,53,13.30
2009,06,10,03,54,13.30
2009,06,10,03,55,13.30
2009,06,10,03,56,13.40
2009,06,10,03,57,13.40
2009,06,10,03,58,13.40
2009,06,10,03,59,13.50
2009,06,10,04,00,13.50
2009,06,10,04,01,13.60
2009,06,10,04,02,13.70
2009,06,10,04,03,13.70
2009,06,10,04,04,13.80
2009,06,10,04,05,13.80
2009,06,10,04,06,13.80
2009,06,10,04,07,13.90
2009,06,10,04,08,13.90
2009,06,10,04,09,13.90
2009,06,10,04,10,13.90
2009,06,10,04,11,13.90
2009,06,10,04,12,13.90
2009,06,10,04,13,13.80
2009,06,10,04,14,13.80
2009,06,10,04,15,13.80
2009,06,10,04,16,13.70
2009,06,10,04,17,13.70
2009,06,10,04,18,13.60
2009,06,10,04,19,13.60
2009,06,10,04,20,13.50
2009,06,10,04,21,13.50
2009,06,10,04,22,13.40
2009,06,10,04,23,13.30
2009,06,10,04,24,13.30
2009,06,10,04,25,13.20
2009,06,10,04,26,13.10
2009,06,10,04,27,13.10
2009,06,10,04,28,13.00
2009,06,10,04,29,12.90
2009,06,10,04,30,12.90
2009,06,10,04,31,12.80
2009,06,10,04,32,12.80
2009,06,10,04,33,12.70
2009,06,10,04,34,12.70
2009,06,10,04,35,12.60
2009,06,10,04,36,12.60
2009,06,10,04,37,12.50
2009,06,10,04,38,12.50
2009,06,10,04,39,12.40
2009,06,10,04,40,12.30
2009,06,10,04,41,12.30
2009,06,10,04,42,12.30
2009,06,10,04,43,12.20
2009,06,10,04,44,12.20
2009,06,10,04,45,12.20
2009,06,10,04,46,12.20
2009,06,10,04,47,12.20
2009,06,10,04,48,12.10
2009,06,10,04,49,12.10
2009,06,10,04,50,12.10
2009,06,10,04,51,12.10
2009,06,10,04,52,12.20
2009,06,10,04,53,12.20
2009,06,10,04,54,12.20
2009,06,10,04,55,12.20
2009,06,10,04,56,12.20
2009,06,10,04,57,12.20
2009,06,10,04,58,12.20
2009,06,10,04,59,12.20
2009,06,10,05,00,12.20
2009,06,10,05,01,12.20
2009,06,10,05,02,12.20
2009,06,10,05,03,12.20
2009,06,10,05,04,12.20
2009,06,10,05,05,12.20
2009,06,10,05,06,12.20
2009,06,10,05,07,12.20
2009,06,10,05,08,12.20
2009,06,10,05,09,12.20
2009,06,10,05,10,12.20
2009,06,10,05,11,12.20
2009,06,10,05,12,12.20
2009,06,10,05,13,12.20
2009,06,10,05,14,12.20
2009,06,10,05,15,12.20
2009,06,10,05,16,12.20
2009,06,10,05,17,12.20
2009,06,10,05,18,12.20
2009,06,10,05,19,12.20
2009,06,10,05,20,12.20
2009,06,10,05,21,12.20
2009,06,10,05,22,12.20
2009,06,10,05,23,12.20
2009,06,10,05,24,12.20
2009,06,10,05,25,12.20
2009,06,10,05,26,12.20
2009,06,10,05,27,12.20
2009,06,10,05,28,12.20
2009,06,10,05,29,12.20
2009,06,10,05,30,12.20
2009,06,10,05,31,12.20
2009,06,10,05,32,12.20
2009,06,10,05,33,12.20
2009,06,10,05,34,12.20
2009,06,10,05,35,12.30
2009,06,10,05,36,12.30
2009,06,10,05,37,12.30
2009,06,10,05,38,12.30
2009,06,10,05,39,12.30
2009,06,10,05,40,12.30
2009,06,10,05,41,12.40
2009,06,10,05,42,12.40
2009,06,10,05,43,12.40
2009,06,10,05,44,12.40
2009,06,10,05,45,12.50
2009,06,10,05,46,12.50
2009,06,10,05,47,12.60
2009,06,10,05,48,12.60
2009,06,10,05,49,12.60
2009,06,10,05,50,12.70
2009,06,10,05,51,12.70
2009,06,10,05,52,12.80
2009,06,10,05,53,12.90
2009,06,10,05,54,12.90
2009,06,10,05,55,13.00
2009,06,10,05,56,13.10
2009,06,10,05,57,13.10
2009,06,10,05,58,13.20
2009,06,10,05,59,13.30
2009,06,10,06,00,13.30
2009,06,10,06,01,13.40
2009,06,10,06,02,13.50
2009,06,10,06,03,13.50
2009,06,10,06,04,13.60
2009,06,10,06,05,13.70
2009,06,10,06,06,13.70
2009,06,10,06,07,13.70
2009,06,10,06,08,13.80
2009,06,10,06,09,13.80
2009,06,10,06,10,13.80
2009,06,10,06,11,13.90
2009,06,10,06,12,13.90
2009,06,10,06,13,14.00
2009,06,10,06,14,14.00
2009,06,10,06,15,14.00
2009,06,10,06,16,14.10
2009,06,10,06,17,14.10
2009,06,10,06,18,14.10
2009,06,10,06,19,14.10
2009,06,10,06,20,14.10
2009,06,10,06,21,14.10
2009,06,10,06,22,14.10
2009,06,10,06,23,14.10
2009,06,10,06,24,14.20
2009,06,10,06,25,14.20
2009,06,10,06,26,14.20
2009,06,10,06,27,14.20
2009,06,10,06,28,14.20
2009,06,10,06,29,14.20
2009,06,10,06,30,14.20
2009,06,10,06,31,14.20
2009,06,10,06,32,14.20
2009,06,10,06,33,14.20
2009,06,10,06,34,14.20
2009,06,10,06,35,14.20
2009,06,10,06,36,14.20
2009,06,10,06,37,14.20
2009,06,10,06,38,14.30
2009,06,10,06,39,14.30
2009,06,10,06,40,14.30
2009,06,10,06,41,14.30
2009,06,10,06,42,14.30
2009,06,10,06,43,14.30
2009,06,10,06,44,14.30
2009,06,10,06,45,14.30
2009,06,10,06,46,14.30
2009,06,10,06,47,14.30
2009,06,10,06,48,14.30
2009,06,10,06,49,14.40
2009,06,10,06,50,14.40
2009,06,10,06,51,14.40
2009,06,10,06,52,14.40
2009,06,10,06,53,14.40
2009,06,10,06,54,14.40
2009,06,10,06,55,14.40
2009,06,10,06,56,14.50
2009,06,10,06,57,14.50
2009,06,10,06,58,14.50
2009,06,10,06,59,14.60
2009,06,10,07,00,14.60
2009,06,10,07,01,14.60
2009,06,10,07,02,14.60
2009,06,10,07,03,14.70
2009,06,10,07,04,14.70
2009,06,10,07,05,14.70
2009,06,10,07,06,14.80
2009,06,10,07,07,14.80
2009,06,10,07,08,14.80
2009,06,10,07,09,14.80
2009,06,10,07,10,14.90
2009,06,10,07,11,14.90
2009,06,10,07,12,14.90
2009,06,10,07,13,15.00
2009,06,10,07,14,15.00
2009,06,10,07,15,15.00
2009,06,10,07,16,15.00
2009,06,10,07,17,15.00
2009,06,10,07,18,15.00
2009,06,10,07,19,15.00
2009,06,10,07,20,15.00
2009,06,10,07,21,15.00
2009,06,10,07,22,15.00
2009,06,10,07,23,15.00
2009,06,10,07,24,15.00
2009,06,10,07,25,15.00
2009,06,10,07,26,15.10
2009,06,10,07,27,15.10
2009,06,10,07,28,15.20
2009,06,10,07,29,15.20
2009,06,10,07,30,15.20
2009,06,10,07,31,15.20
2009,06,10,07,32,15.30
2009,06,10,07,33,15.30
2009,06,10,07,34,15.30
2009,06,10,07,35,15.30
2009,06,10,07,36,15.40
2009,06,10,07,37,15.40
2009,06,10,07,38,15.40
2009,06,10,07,39,15.40
2009,06,10,07,40,15.50
2009,06,10,07,41,15.50
2009,06,10,07,42,15.60
2009,06,10,07,43,15.60
2009,06,10,07,44,15.60
2009,06,10,07,45,15.70
2009,06,10,07,46,15.70
2009,06,10,07,47,15.80
2009,06,10,07,48,15.80
2009,06,10,07,49,15.80
2009,06,10,07,50,15.90
2009,06,10,07,51,15.90
2009,06,10,07,52,15.90
2009,06,10,07,53,16.00
2009,06,10,07,54,16.10
2009,06,10,07,55,16.10
2009,06,10,07,56,16.20
2009,06,10,07,57,16.30
2009,06,10,07,58,16.30
2009,06,10,07,59,16.40
2009,06,10,08,00,16.50
2009,06,10,08,01,16.50
2009,06,10,08,02,16.60
2009,06,10,08,03,16.60
2009,06,10,08,04,16.60
2009,06,10,08,05,16.70
2009,06,10,08,06,16.80
2009,06,10,08,07,16.80
2009,06,10,08,08,16.90
2009,06,10,08,09,17.00
2009,06,10,08,10,17.10
2009,06,10,08,11,17.20
2009,06,10,08,12,17.20
2009,06,10,08,13,17.30
2009,06,10,08,14,17.40
2009,06,10,08,15,17.50
2009,06,10,08,16,17.60
2009,06,10,08,17,17.70
2009,06,10,08,18,17.80
2009,06,10,08,19,17.90
2009,06,10,08,20,18.00
2009,06,10,08,21,18.10
2009,06,10,08,22,18.20
2009,06,10,08,23,18.40
2009,06,10,08,24,18.50
2009,06,10,08,25,18.60
2009,06,10,08,26,18.70
2009,06,10,08,27,18.80
2009,06,10,08,28,18.80
2009,06,10,08,29,18.90
2009,06,10,08,30,19.00
2009,06,10,08,31,19.10
2009,06,10,08,32,19.20
2009,06,10,08,33,19.20
2009,06,10,08,34,19.20
2009,06,10,08,35,19.20
2009,06,10,08,36,19.30
2009,06,10,08,37,19.30
2009,06,10,08,38,19.20
2009,06,10,08,39,19.20
2009,06,10,08,40,19.20
2009,06,10,08,41,19.10
2009,06,10,08,42,19.10
2009,06,10,08,43,19.10
2009,06,10,08,44,19.10
2009,06,10,08,45,19.10
2009,06,10,08,46,19.10
2009,06,10,08,47,19.20
2009,06,10,08,48,19.20
2009,06,10,08,49,19.30
2009,06,10,08,50,19.30
2009,06,10,08,51,19.40
2009,06,10,08,52,19.50
2009,06,10,08,53,19.50
2009,06,10,08,54,19.60
2009,06,10,08,55,19.60
2009,06,10,08,56,19.70
2009,06,10,08,57,19.70
2009,06,10,08,58,19.70
2009,06,10,08,59,19.70
2009,06,10,09,00,19.70
2009,06,10,09,01,19.70
2009,06,10,09,02,19.70
2009,06,10,09,03,19.60
2009,06,10,09,04,19.60
2009,06,10,09,05,19.50
2009,06,10,09,06,19.40
2009,06,10,09,07,19.40
2009,06,10,09,08,19.40
2009,06,10,09,09,19.40
2009,06,10,09,10,19.40
2009,06,10,09,11,19.50
2009,06,10,09,12,19.50
2009,06,10,09,13,19.50
2009,06,10,09,14,19.50
2009,06,10,09,15,19.50
2009,06,10,09,16,19.60
2009,06,10,09,17,19.60
2009,06,10,09,18,19.70
2009,06,10,09,19,19.70
2009,06,10,09,20,19.80
2009,06,10,09,21,19.90
2009,06,10,09,22,19.90
2009,06,10,09,23,20.00
2009,06,10,09,24,20.00
2009,06,10,09,25,20.00
2009,06,10,09,26,20.00
2009,06,10,09,27,20.10
2009,06,10,09,28,20.10
2009,06,10,09,29,20.20
2009,06,10,09,30,20.20
2009,06,10,09,31,20.20
2009,06,10,09,32,20.30
2009,06,10,09,33,20.40
2009,06,10,09,34,20.40
2009,06,10,09,35,20.40
2009,06,10,09,36,20.40
2009,06,10,09,37,20.30
2009,06,10,09,38,20.30
2009,06,10,09,39,20.20
2009,06,10,09,40,20.20
2009,06,10,09,41,20.20
2009,06,10,09,42,20.20
2009,06,10,09,43,20.10
2009,06,10,09,44,20.10
2009,06,10,09,45,20.00
2009,06,10,09,46,20.00
2009,06,10,09,47,20.00
2009,06,10,09,48,20.00
2009,06,10,09,49,20.00
2009,06,10,09,50,20.10
2009,06,10,09,51,20.10
2009,06,10,09,52,20.20
2009,06,10,09,53,20.30
2009,06,10,09,54,20.40
2009,06,10,09,55,20.50
2009,06,10,09,56,20.60
2009,06,10,09,57,20.70
2009,06,10,09,58,20.70
2009,06,10,09,59,20.80
2009,06,10,10,00,20.90
2009,06,10,10,01,21.10
2009,06,10,10,02,21.20
2009,06,10,10,03,21.30
2009,06,10,10,04,21.40
2009,06,10,10,05,21.40
2009,06,10,10,06,21.40
2009,06,10,10,07,21.40
2009,06,10,10,08,21.50
2009,06,10,10,09,21.60
2009,06,10,10,10,21.70
2009,06,10,10,11,21.80
2009,06,10,10,12,21.90
2009,06,10,10,13,22.00
2009,06,10,10,14,22.10
2009,06,10,10,15,22.10
2009,06,10,10,16,22.10
2009,06,10,10,17,22.10
2009,06,10,10,18,22.10
2009,06,10,10,19,22.20
2009,06,10,10,20,22.30
2009,06,10,10,21,22.30
2009,06,10,10,22,22.40
2009,06,10,10,23,22.40
2009,06,10,10,24,22.50
2009,06,10,10,25,22.40
2009,06,10,10,26,22.20
2009,06,10,10,27,22.10
2009,06,10,10,28,21.90
2009,06,10,10,29,21.70
2009,06,10,10,30,21.60
2009,06,10,10,31,21.50
2009,06,10,10,32,21.40
2009,06,10,10,33,21.30
2009,06,10,10,34,21.20
2009,06,10,10,35,21.00
2009,06,10,10,36,20.90
2009,06,10,10,37,20.90
2009,06,10,10,38,20.90
2009,06,10,10,39,20.80
2009,06,10,10,40,20.80
2009,06,10,10,41,20.70
2009,06,10,10,42,20.70
2009,06,10,10,43,20.80
2009,06,10,10,44,20.80
2009,06,10,10,45,21.00
2009,06,10,10,46,21.20
2009,06,10,10,47,21.40
2009,06,10,10,48,21.60
2009,06,10,10,49,21.80
2009,06,10,10,50,21.90
2009,06,10,10,51,22.00
2009,06,10,10,52,22.00
2009,06,10,10,53,22.10
2009,06,10,10,54,22.00
2009,06,10,10,55,21.90
2009,06,10,10,56,21.90
2009,06,10,10,57,21.80
2009,06,10,10,58,21.80
2009,06,10,10,59,21.80
2009,06,10,11,00,21.80
2009,06,10,11,01,21.80
2009,06,10,11,02,21.90
2009,06,10,11,03,22.00
2009,06,10,11,04,22.10
2009,06,10,11,05,22.10
2009,06,10,11,06,22.10
2009,06,10,11,07,22.20
2009,06,10,11,08,22.30
2009,06,10,11,09,22.30
2009,06,10,11,10,22.40
2009,06,10,11,11,22.40
2009,06,10,11,12,22.50
2009,06,10,11,13,22.50
2009,06,10,11,14,22.60
2009,06,10,11,15,22.70
2009,06,10,11,16,22.80
2009,06,10,11,17,22.80
2009,06,10,11,18,22.70
2009,06,10,11,19,22.80
2009,06,10,11,20,22.80
2009,06,10,11,21,22.80
2009,06,10,11,22,22.70
2009,06,10,11,23,22.70
2009,06,10,11,24,22.50
2009,06,10,11,25,22.40
2009,06,10,11,26,22.30
2009,06,10,11,27,22.20
2009,06,10,11,28,22.20
2009,06,10,11,29,22.10
2009,06,10,11,30,22.00
2009,06,10,11,31,22.00
2009,06,10,11,32,21.90
2009,06,10,11,33,21.90
2009,06,10,11,34,21.90
2009,06,10,11,35,21.90
2009,06,10,11,36,22.00
2009,06,10,11,37,22.10
2009,06,10,11,38,22.10
2009,06,10,11,39,22.00
2009,06,10,11,40,21.90
2009,06,10,11,41,21.90
2009,06,10,11,42,21.80
2009,06,10,11,43,21.80
2009,06,10,11,44,21.80
2009,06,10,11,45,21.80
2009,06,10,11,46,21.80
2009,06,10,11,47,21.80
2009,06,10,11,48,21.70
2009,06,10,11,49,21.60
2009,06,10,11,50,21.50
2009,06,10,11,51,21.50
2009,06,10,11,52,21.50
2009,06,10,11,53,21.40
2009,06,10,11,54,21.50
2009,06,10,11,55,21.50
2009,06,10,11,56,21.50
2009,06,10,11,57,21.50
2009,06,10,11,58,21.40
2009,06,10,11,59,21.50
2009,06,10,12,00,21.50
2009,06,10,12,01,21.60
2009,06,10,12,02,21.80
2009,06,10,12,03,21.90
2009,06,10,12,04,21.90
2009,06,10,12,05,22.00
2009,06,10,12,06,21.90
2009,06,10,12,07,22.00
2009,06,10,12,08,22.00
2009,06,10,12,09,22.10
2009,06,10,12,10,22.10
2009,06,10,12,11,22.20
2009,06,10,12,12,22.10
2009,06,10,12,13,22.10
2009,06,10,12,14,22.10
2009,06,10,12,15,22.10
2009,06,10,12,16,22.20
2009,06,10,12,17,22.20
2009,06,10,12,18,22.30
2009,06,10,12,19,22.40
2009,06,10,12,20,22.40
2009,06,10,12,21,22.40
2009,06,10,12,22,22.40
2009,06,10,12,23,22.50
2009,06,10,12,24,22.50
2009,06,10,12,25,22.50
2009,06,10,12,26,22.40
2009,06,10,12,27,22.30
2009,06,10,12,28,22.20
2009,06,10,12,29,22.20
2009,06,10,12,30,22.20
2009,06,10,12,31,22.20
2009,06,10,12,32,22.20
2009,06,10,12,33,22.30
2009,06,10,12,34,22.30
2009,06,10,12,35,22.30
2009,06,10,12,36,22.30
2009,06,10,12,37,22.20
2009,06,10,12,38,22.20
2009,06,10,12,39,22.20
2009,06,10,12,40,22.20
2009,06,10,12,41,22.30
2009,06,10,12,42,22.40
2009,06,10,12,43,22.40
2009,06,10,12,44,22.40
2009,06,10,12,45,22.40
2009,06,10,12,46,22.40
2009,06,10,12,47,22.40
2009,06,10,12,48,22.50
2009,06,10,12,49,22.50
2009,06,10,12,50,22.40
2009,06,10,12,51,22.30
2009,06,10,12,52,22.20
2009,06,10,12,53,22.20
2009,06,10,12,54,22.40
2009,06,10,12,55,22.50
2009,06,10,12,56,22.60
2009,06,10,12,57,22.60
2009,06,10,12,58,22.60
2009,06,10,12,59,22.50
2009,06,10,13,00,22.50
2009,06,10,13,01,22.40
2009,06,10,13,02,22.30
2009,06,10,13,03,22.30
2009,06,10,13,04,22.30
2009,06,10,13,05,22.30
2009,06,10,13,06,22.30
2009,06,10,13,07,22.30
2009,06,10,13,08,22.40
2009,06,10,13,09,22.50
2009,06,10,13,10,22.60
2009,06,10,13,11,22.80
2009,06,10,13,12,23.00
2009,06,10,13,13,23.10
2009,06,10,13,14,23.20
2009,06,10,13,15,23.20
2009,06,10,13,16,23.10
2009,06,10,13,17,23.10
2009,06,10,13,18,23.10
2009,06,10,13,19,23.10
2009,06,10,13,20,23.30
2009,06,10,13,21,23.30
2009,06,10,13,22,23.30
2009,06,10,13,23,23.40
2009,06,10,13,24,23.40
2009,06,10,13,25,23.40
2009,06,10,13,26,23.40
2009,06,10,13,27,23.40
2009,06,10,13,28,23.30
2009,06,10,13,29,23.30
2009,06,10,13,30,23.30
2009,06,10,13,31,23.30
2009,06,10,13,32,23.30
2009,06,10,13,33,23.20
2009,06,10,13,34,23.10
2009,06,10,13,35,22.90
2009,06,10,13,36,22.80
2009,06,10,13,37,22.80
2009,06,10,13,38,22.70
2009,06,10,13,39,22.70
2009,06,10,13,40,22.80
2009,06,10,13,41,23.00
2009,06,10,13,42,23.10
2009,06,10,13,43,23.20
2009,06,10,13,44,23.30
2009,06,10,13,45,23.30
2009,06,10,13,46,23.30
2009,06,10,13,47,23.20
2009,06,10,13,48,23.20
2009,06,10,13,49,23.30
2009,06,10,13,50,23.30
2009,06,10,13,51,23.30
2009,06,10,13,52,23.20
2009,06,10,13,53,23.10
2009,06,10,13,54,23.10
2009,06,10,13,55,22.90
2009,06,10,13,56,23.00
2009,06,10,13,57,23.00
2009,06,10,13,58,23.00
2009,06,10,13,59,23.10
2009,06,10,14,00,23.10
2009,06,10,14,01,23.10
2009,06,10,14,02,23.20
2009,06,10,14,03,23.20
2009,06,10,14,04,23.30
2009,06,10,14,05,23.30
2009,06,10,14,06,23.30
2009,06,10,14,07,23.20
2009,06,10,14,08,23.10
2009,06,10,14,09,23.00
2009,06,10,14,10,23.00
2009,06,10,14,11,23.00
2009,06,10,14,12,22.90
2009,06,10,14,13,23.00
2009,06,10,14,14,23.10
2009,06,10,14,15,23.10
2009,06,10,14,16,23.20
2009,06,10,14,17,23.20
2009,06,10,14,18,23.20
2009,06,10,14,19,23.20
2009,06,10,14,20,23.30
2009,06,10,14,21,23.40
2009,06,10,14,22,23.40
2009,06,10,14,23,23.40
2009,06,10,14,24,23.30
2009,06,10,14,25,23.30
2009,06,10,14,26,23.30
2009,06,10,14,27,23.30
2009,06,10,14,28,23.30
2009,06,10,14,29,23.20
2009,06,10,14,30,23.10
2009,06,10,14,31,23.00
2009,06,10,14,32,22.90
2009,06,10,14,33,22.90
2009,06,10,14,34,22.90
2009,06,10,14,35,22.80
2009,06,10,14,36,22.80
2009,06,10,14,37,22.80
2009,06,10,14,38,22.80
2009,06,10,14,39,22.90
2009,06,10,14,40,23.00
2009,06,10,14,41,23.00
2009,06,10,14,42,23.00
2009,06,10,14,43,23.00
2009,06,10,14,44,22.90
2009,06,10,14,45,22.90
2009,06,10,14,46,22.90
2009,06,10,14,47,23.00
2009,06,10,14,48,23.10
2009,06,10,14,49,23.20
2009,06,10,14,50,23.20
2009,06,10,14,51,23.40
2009,06,10,14,52,23.60
2009,06,10,14,53,23.60
2009,06,10,14,54,23.60
2009,06,10,14,55,23.60
2009,06,10,14,56,23.60
2009,06,10,14,57,23.60
2009,06,10,14,58,23.60
2009,06,10,14,59,23.60
2009,06,10,15,00,23.50
2009,06,10,15,01,23.50
2009,06,10,15,02,23.50
2009,06,10,15,03,23.40
2009,06,10,15,04,23.50
2009,06,10,15,05,23.60
2009,06,10,15,06,23.70
2009,06,10,15,07,23.70
2009,06,10,15,08,23.60
2009,06,10,15,09,23.60
2009,06,10,15,10,23.60
2009,06,10,15,11,23.60
2009,06,10,15,12,23.50
2009,06,10,15,13,23.50
2009,06,10,15,14,23.50
2009,06,10,15,15,23.60
2009,06,10,15,16,23.60
2009,06,10,15,17,23.60
2009,06,10,15,18,23.50
2009,06,10,15,19,23.50
2009,06,10,15,20,23.50
2009,06,10,15,21,23.60
2009,06,10,15,22,23.60
2009,06,10,15,23,23.80
2009,06,10,15,24,23.90
2009,06,10,15,25,23.90
2009,06,10,15,26,23.90
2009,06,10,15,27,23.90
2009,06,10,15,28,23.80
2009,06,10,15,29,23.80
2009,06,10,15,30,23.80
2009,06,10,15,31,23.80
2009,06,10,15,32,23.90
2009,06,10,15,33,24.00
2009,06,10,15,34,24.10
2009,06,10,15,35,24.20
2009,06,10,15,36,24.30
2009,06,10,15,37,24.20
2009,06,10,15,38,24.20
2009,06,10,15,39,24.30
2009,06,10,15,40,24.40
2009,06,10,15,41,24.40
2009,06,10,15,42,24.50
2009,06,10,15,43,24.50
2009,06,10,15,44,24.50
2009,06,10,15,45,24.50
2009,06,10,15,46,24.60
2009,06,10,15,47,24.70
2009,06,10,15,48,24.80
2009,06,10,15,49,25.00
2009,06,10,15,50,25.00
2009,06,10,15,51,25.10
2009,06,10,15,52,25.10
2009,06,10,15,53,25.20
2009,06,10,15,54,25.20
2009,06,10,15,55,25.10
2009,06,10,15,56,25.10
2009,06,10,15,57,25.20
2009,06,10,15,58,25.10
2009,06,10,15,59,25.10
2009,06,10,16,00,25.00
2009,06,10,16,01,25.00
2009,06,10,16,02,25.00
2009,06,10,16,03,25.00
2009,06,10,16,04,25.00
2009,06,10,16,05,25.00
2009,06,10,16,06,24.90
2009,06,10,16,07,24.90
2009,06,10,16,08,24.90
2009,06,10,16,09,24.90
2009,06,10,16,10,24.90
2009,06,10,16,11,24.90
2009,06,10,16,12,25.00
2009,06,10,16,13,25.00
2009,06,10,16,14,25.00
2009,06,10,16,15,24.90
2009,06,10,16,16,24.90
2009,06,10,16,17,24.80
2009,06,10,16,18,24.90
2009,06,10,16,19,24.90
2009,06,10,16,20,25.00
2009,06,10,16,21,25.10
2009,06,10,16,22,25.10
2009,06,10,16,23,25.10
2009,06,10,16,24,25.20
2009,06,10,16,25,25.20
2009,06,10,16,26,25.30
2009,06,10,16,27,25.30
2009,06,10,16,28,25.30
2009,06,10,16,29,25.30
2009,06,10,16,30,25.30
2009,06,10,16,31,25.30
2009,06,10,16,32,25.30
2009,06,10,16,33,25.30
2009,06,10,16,34,25.30
2009,06,10,16,35,25.30
2009,06,10,16,36,25.20
2009,06,10,16,37,25.20
2009,06,10,16,38,25.20
2009,06,10,16,39,25.10
2009,06,10,16,40,25.10
2009,06,10,16,41,25.10
2009,06,10,16,42,25.10
2009,06,10,16,43,25.20
2009,06,10,16,44,25.20
2009,06,10,16,45,25.20
2009,06,10,16,46,25.10
2009,06,10,16,47,25.10
2009,06,10,16,48,25.10
2009,06,10,16,49,25.10
2009,06,10,16,50,25.20
2009,06,10,16,51,25.10
2009,06,10,16,52,25.10
2009,06,10,16,53,25.10
2009,06,10,16,54,25.10
2009,06,10,16,55,25.10
2009,06,10,16,56,25.10
2009,06,10,16,57,25.10
2009,06,10,16,58,25.10
2009,06,10,16,59,25.10
2009,06,10,17,00,25.10
2009,06,10,17,01,25.10
2009,06,10,17,02,25.10
2009,06,10,17,03,25.20
2009,06,10,17,04,25.20
2009,06,10,17,05,25.20
2009,06,10,17,06,25.20
2009,06,10,17,07,25.20
2009,06,10,17,08,25.20
2009,06,10,17,09,25.20
2009,06,10,17,10,25.10
2009,06,10,17,11,25.10
2009,06,10,17,12,25.10
2009,06,10,17,13,25.10
2009,06,10,17,14,25.10
2009,06,10,17,15,25.10
2009,06,10,17,16,25.10
2009,06,10,17,17,25.10
2009,06,10,17,18,25.20
2009,06,10,17,19,25.20